Regional Weather Roundup
Issued by NWS

Home | Current Version | Previous Version | Graphics & Text | Print | Product List | Glossary On
Versions: 1 2 3 4 5 6 7 8 9 10 11 12 13 14 15 16 17 18 19 20 21 22 23 24 25 26 27 28 29 30 31 32 33 34 35 36 37 38 39 40 41 42 43 44 45 46 47 48 49 50
201
ASUS43 KBIS 250110
RWRND
NORTH DAKOTA REGIONAL WEATHER ROUNDUP
NATIONAL WEATHER SERVICE EASTERN NORTH DAKOTA/GRAND FORKS ND
700 PM CST SAT FEB 24 2018

  NOTE: "FAIR" INDICATES FEW OR NO CLOUDS BELOW 12,000 FEET WITH NO
  SIGNIFICANT WEATHER AND/OR OBSTRUCTIONS TO VISIBILITY.

NDZ001>003-009>011-017-250200-
...NORTHWEST NORTH DAKOTA...

CITY           SKY/WX    TMP DP  RH WIND       PRES   REMARKS
WILLISTON      CLOUDY    20  15  81 SW9       29.59S WCI   9
MINOT          FAIR      18  11  74 S7        29.57F WCI   9
MINOT AFB      FAIR      12   7  79 SW5         N/A  WCI   4
$$

NDZ018>021-031>035-040>046-250200-
...SOUTHWEST NORTH DAKOTA...

CITY           SKY/WX    TMP DP  RH WIND       PRES   REMARKS
BISMARCK       FAIR      13   9  84 CALM      29.64F
DICKINSON      FAIR      12   6  77 SW12      29.57F WCI  -2
GARRISON         N/A     12   7  80 S5        29.59F WCI   4
HETTINGER      FAIR      11   4  73 W7        29.63F WCI   0
$$

NDZ004>008-012>016-024-026-027-054-250200-
...NORTHEAST NORTH DAKOTA...

CITY           SKY/WX    TMP DP  RH WIND       PRES   REMARKS
GRAND FORKS    LGT SNOW  16  14  92 E3        29.71F VSB 1
GRAND FORKS AF LGT SNOW  14  12  92 CALM      29.70F FOG
DEVILS LAKE    FLURRIES  18  15  88 SE10      29.63F WCI   6
$$

NDZ022-023-025-028>030-036>039-047>053-250200-
...SOUTHEAST NORTH DAKOTA...

CITY           SKY/WX    TMP DP  RH WIND       PRES   REMARKS
JAMESTOWN      LGT SNOW  15  12  88 S5        29.63F FOG     WCI   8
FARGO          LGT SNOW  19  17  92 N6        29.66F VSB 3/4 WCI  11
WAHPETON       CLOUDY    21  18  86 N3        29.66F
$$




USA.gov is the U.S. government's official web portal to all federal, state and local government web resources and services.